Time,TemperatureF,DewpointF,PressureIn,WindDirection,WindDirectionDegrees,WindSpeedMPH,WindSpeedGustMPH,Humidity,HourlyPrecipIn,Conditions,Clouds,dailyrainin,SoftwareType,DateUTC
2013-01-04 00:03:00,68.0,67.0,30.11,SW,214,6.0,7.0,96,-99.99,,,-99.99,,2013-01-04 05:03:00,
2013-01-04 00:12:00,68.0,67.0,30.11,SSW,213,5.0,7.0,95,-99.99,,,-99.99,,2013-01-04 05:12:00,
2013-01-04 00:22:00,68.0,67.0,30.11,SSW,213,5.0,7.0,95,-99.99,,,-99.99,,2013-01-04 05:22:00,
2013-01-04 00:33:00,68.0,67.0,30.11,SSW,201,2.0,3.0,95,-99.99,,,-99.99,,2013-01-04 05:33:00,
2013-01-04 00:42:00,68.0,66.0,30.10,SSE,159,1.0,2.0,95,-99.99,,,-99.99,,2013-01-04 05:42:00,
2013-01-04 00:53:00,67.0,66.0,30.10,ENE,61,1.0,3.0,96,-99.99,,,-99.99,,2013-01-04 05:53:00,
2013-01-04 01:02:00,67.0,66.0,30.10,ENE,61,1.0,3.0,96,-99.99,,,-99.99,,2013-01-04 06:02:00,
2013-01-04 01:12:00,67.0,66.0,30.10,West,278,2.0,3.0,96,-99.99,,,-99.99,,2013-01-04 06:12:00,
2013-01-04 01:22:00,66.0,65.0,30.10,West,279,4.0,5.0,96,-99.99,,,-99.99,,2013-01-04 06:22:00,
2013-01-04 01:33:00,66.0,65.0,30.10,West,279,4.0,5.0,96,-99.99,,,-99.99,,2013-01-04 06:33:00,
2013-01-04 01:42:00,66.0,65.0,30.10,North,350,4.0,5.0,97,-99.99,,,-99.99,,2013-01-04 06:42:00,
2013-01-04 01:53:00,66.0,65.0,30.10,NNW,333,3.0,5.0,97,-99.99,,,-99.99,,2013-01-04 06:53:00,
2013-01-04 02:02:00,66.0,65.0,30.10,NNW,333,3.0,5.0,97,-99.99,,,-99.99,,2013-01-04 07:02:00,
2013-01-04 02:12:00,66.0,66.0,30.09,East,85,1.0,2.0,97,-99.99,,,-99.99,,2013-01-04 07:12:00,
2013-01-04 02:22:00,66.0,66.0,30.09,East,85,1.0,2.0,97,-99.99,,,-99.99,,2013-01-04 07:22:00,
2013-01-04 02:32:00,66.0,66.0,30.09,SE,134,2.0,3.0,98,-99.99,,,-99.99,,2013-01-04 07:32:00,
2013-01-04 02:42:00,66.0,66.0,30.10,ENE,78,1.0,3.0,98,-99.99,,,-99.99,,2013-01-04 07:42:00,
2013-01-04 02:52:00,66.0,65.0,30.10,NE,53,3.0,4.0,97,-99.99,,,-99.99,,2013-01-04 07:52:00,
2013-01-04 03:02:00,66.0,65.0,30.10,NE,53,3.0,4.0,97,-99.99,,,-99.99,,2013-01-04 08:02:00,
2013-01-04 03:12:00,65.0,65.0,30.10,NW,326,3.0,4.0,98,-99.99,,,-99.99,,2013-01-04 08:12:00,
2013-01-04 03:23:00,65.0,65.0,30.10,NW,326,3.0,4.0,98,-99.99,,,-99.99,,2013-01-04 08:23:00,
2013-01-04 03:32:00,65.0,65.0,30.10,NW,326,3.0,4.0,98,-99.99,,,-99.99,,2013-01-04 08:32:00,
2013-01-04 03:42:00,65.0,65.0,30.10,NNW,339,4.0,7.0,98,-99.99,,,-99.99,,2013-01-04 08:42:00,
2013-01-04 03:53:00,65.0,65.0,30.10,NNW,341,4.0,7.0,98,-99.99,,,-99.99,,2013-01-04 08:53:00,
2013-01-04 04:02:00,65.0,65.0,30.10,NNW,341,4.0,7.0,98,-99.99,,,-99.99,,2013-01-04 09:02:00,